Wind_Speed
39 38 37 36 35 35 34 33 33 33 34 35 34 34 33 31 31 31 29 27 25 24 24 24 24 23 22 21 21 21 20 19 19 19 20 21 21 21 20 20 20 21
39 38 37 36 35 34 34 34 35 34 35 36 36 35 34 32 31 31 30 28 27 25 25 25 24 24 23 22 22 21 21 21 20 20 21 22 22 22 22 21 21 21
40 39 38 37 36 36 35 35 35 35 35 35 35 35 34 33 32 31 31 29 28 27 26 26 25 25 24 24 23 23 23 23 22 21 21 23 23 23 23 22 22 22
40 39 39 39 38 37 35 34 35 35 35 34 35 35 34 33 32 31 31 30 30 29 28 27 27 26 25 25 25 25 25 24 24 22 22 23 24 24 24 23 23 23
41 40 39 39 37 35 34 34 35 35 35 35 36 35 35 34 32 32 32 31 31 31 30 29 28 28 27 27 27 27 26 26 26 25 25 25 25 25 26 25 25 24
40 40 40 39 37 35 34 35 35 35 35 36 35 35 35 34 33 33 32 32 32 32 31 31 30 29 29 29 29 29 28 28 28 27 28 28 27 27 27 27 27 27
40 40 40 39 37 36 35 36 35 34 35 34 34 34 35 34 34 34 33 33 32 33 33 32 32 31 30 30 31 31 31 30 29 29 30 30 30 29 29 29 29 29
40 40 40 39 37 36 36 36 35 35 34 33 32 33 34 35 35 35 34 33 33 34 33 33 33 33 32 32 32 32 32 32 31 31 31 32 31 32 32 31 31 31
39 39 39 38 37 37 37 36 36 35 34 33 33 33 33 34 35 35 34 34 34 34 34 34 34 34 34 33 34 34 33 33 33 33 33 33 33 34 34 33 32 33
38 37 37 37 37 37 37 37 36 36 35 34 35 34 33 34 35 34 34 34 34 35 35 36 36 36 36 35 35 35 34 35 34 34 35 35 35 35 34 33 33 34
37 36 37 37 37 37 37 37 37 36 35 35 35 35 35 35 34 34 34 34 35 36 37 37 37 37 37 37 36 36 35 36 35 36 36 36 36 36 34 33 33 34
37 37 37 38 39 38 38 38 37 36 35 35 36 36 36 36 35 35 35 35 37 37 37 38 38 37 37 37 37 36 36 36 36 36 37 37 37 36 35 34 34 35
39 39 39 39 39 39 39 38 37 37 36 37 37 37 37 37 36 36 36 37 38 38 38 38 37 37 37 37 37 37 37 37 37 37 37 37 37 36 35 35 36 37
40 40 40 39 39 38 38 37 38 38 38 38 38 37 38 38 37 37 37 38 39 39 39 38 37 37 37 38 38 38 38 38 38 38 38 38 37 37 35 34 35 36
39 38 38 38 37 37 37 37 38 38 38 38 38 38 38 38 38 37 37 37 38 39 39 38 37 38 39 39 39 39 39 39 38 38 38 38 37 36 35 35 36 36
37 37 37 37 37 37 38 38 37 37 37 37 37 37 38 38 37 37 37 37 38 38 38 38 38 40 41 42 42 41 39 38 37 38 37 37 36 35 35 36 37 38
36 36 36 36 37 38 38 38 37 37 37 37 37 37 37 37 37 37 38 38 38 38 38 38 39 41 43 43 44 42 40 39 37 37 36 35 35 35 36 37 37 37
36 35 35 36 36 37 37 37 37 37 37 37 36 37 37 36 37 37 38 39 38 38 38 39 40 42 43 44 44 43 43 41 39 36 34 34 35 36 37 37 36 37
36 36 36 36 36 37 37 37 37 37 38 37 37 37 36 36 38 38 39 39 38 39 39 40 41 42 44 44 44 44 43 42 41 38 34 34 34 35 36 37 37 36
36 36 36 36 37 38 38 37 37 38 38 38 37 36 36 38 38 38 39 39 39 39 39 40 41 42 43 43 43 44 43 42 42 40 37 36 36 36 36 37 37 36
36 35 36 36 37 37 37 37 37 37 37 37 36 37 38 38 38 38 39 39 39 39 38 39 42 42 41 41 42 42 42 41 41 40 39 39 38 38 38 38 37 36
35 36 36 36 36 36 36 37 37 37 37 37 37 37 38 38 38 38 38 38 38 38 38 40 42 41 40 40 41 40 39 39 39 40 40 40 41 40 39 39 38 37
36 36 36 36 36 36 36 37 37 37 37 37 37 36 37 37 38 38 38 38 38 38 39 40 42 40 39 40 40 38 36 37 38 39 40 41 42 41 40 40 39 38
37 37 37 37 36 36 37 37 38 37 38 38 38 37 38 38 38 38 38 38 38 39 39 40 41 40 39 39 39 37 35 36 37 38 40 40 40 40 40 40 40 39
38 38 38 37 36 37 38 38 39 38 38 38 38 38 38 37 37 36 37 37 38 38 38 39 39 39 38 39 39 37 36 36 36 37 38 38 38 38 38 38 39 39
37 38 38 37 37 38 39 39 39 38 37 36 36 36 36 35 35 35 35 35 36 36 36 37 38 38 38 38 39 38 36 36 36 37 37 37 36 36 35 36 37 38
Wind_Direction
208 208 210 211 213 215 215 215 216 216 217 217 218 221 222 222 222 221 225 229 233 236 237 234 232 232 234 237 240 242 243 245 244 243 240 238 239 242 244 246 246 246
207 209 210 212 213 215 216 217 217 218 219 220 221 222 223 223 222 221 225 229 232 235 237 235 233 232 234 236 239 241 242 244 243 241 240 240 241 243 247 250 250 249
207 209 210 212 213 214 216 217 218 219 220 221 222 223 224 224 223 223 226 229 233 235 236 236 234 233 235 237 240 242 242 242 242 240 239 240 242 244 249 252 253 253
207 209 210 212 214 215 215 215 217 219 220 221 222 224 225 225 225 225 226 230 233 235 236 236 236 235 236 238 241 244 245 244 243 242 241 241 242 245 248 251 254 254
208 209 211 213 214 215 214 215 217 218 219 221 222 223 225 225 226 226 227 229 232 234 235 236 237 237 237 238 241 244 246 246 245 243 243 244 245 246 247 249 252 253
208 209 211 213 214 214 214 216 218 219 220 221 222 223 225 226 227 227 228 229 231 233 234 235 237 238 238 239 240 243 245 247 247 244 244 246 247 247 247 248 250 252
207 209 211 212 213 213 215 217 218 219 221 221 222 224 225 226 227 228 229 230 230 232 233 235 236 237 238 239 239 241 244 246 247 245 244 246 247 248 248 248 249 250
207 209 210 211 212 213 215 217 218 220 221 221 222 224 225 226 228 229 229 230 230 232 234 235 236 237 238 238 238 240 241 243 244 244 244 245 245 246 247 247 248 249
207 208 209 210 211 213 215 217 219 220 221 221 222 224 226 227 229 229 229 229 230 231 234 235 236 237 237 237 237 239 239 241 242 242 243 243 243 245 246 246 246 247
207 207 208 209 211 213 215 217 219 220 221 222 223 224 226 228 229 230 230 229 229 230 232 234 235 236 237 237 237 238 239 240 241 241 242 243 244 245 246 245 245 246
206 207 208 209 211 213 215 217 218 219 220 222 223 224 226 227 228 229 229 229 230 231 232 233 234 235 236 236 237 238 239 240 241 241 242 243 244 245 246 246 246 247
205 207 208 210 212 213 215 216 217 218 219 221 222 224 226 227 227 228 228 229 231 232 233 233 234 234 235 236 237 238 239 240 241 242 242 243 244 245 246 246 247 249
205 207 209 211 212 213 214 216 216 217 218 220 222 223 225 226 227 228 229 230 232 233 234 235 234 234 235 236 237 238 239 240 241 242 243 244 245 245 246 246 248 249
206 208 209 211 213 214 215 216 216 217 218 220 221 222 224 226 227 228 229 231 233 233 235 235 235 235 236 236 237 237 238 239 240 241 242 244 246 246 246 246 248 249
208 208 210 211 212 213 215 216 217 218 219 220 221 222 224 226 227 228 230 232 233 234 235 236 235 236 237 237 237 236 236 238 239 240 241 243 245 246 247 247 248 250
208 209 209 210 211 213 215 216 217 218 219 221 222 223 225 226 227 228 230 232 234 235 236 236 236 237 238 239 238 238 237 237 238 239 240 242 243 245 246 247 248 250
207 208 209 210 211 213 214 215 216 218 219 221 222 223 225 226 227 228 230 232 234 235 236 236 237 238 239 240 240 240 238 237 238 239 240 241 242 244 246 248 249 250
206 207 208 210 211 212 214 215 216 217 219 220 221 223 224 226 227 229 230 232 233 235 236 237 238 240 241 241 242 241 241 240 239 239 239 240 242 243 246 248 249 250
205 206 208 209 211 212 214 215 215 216 217 219 221 222 224 226 228 229 231 232 233 234 236 238 239 241 242 242 243 243 243 242 241 240 241 242 243 244 246 247 248 250
205 206 207 209 210 212 213 214 214 216 217 219 220 221 223 225 227 229 231 232 233 234 237 239 240 242 243 243 244 244 244 244 243 242 243 244 245 246 247 249 249 249
204 205 206 208 210 210 212 213 214 216 217 218 219 220 222 225 226 228 230 232 233 235 237 240 242 243 243 244 245 246 245 245 244 244 244 246 247 248 249 250 251 251
204 205 206 208 209 209 210 213 214 216 217 217 219 220 223 225 226 228 230 231 233 234 236 240 243 243 244 245 246 247 246 245 245 245 245 246 248 249 250 252 252 252
205 205 206 208 208 208 210 212 214 216 217 217 217 219 222 224 226 228 230 230 232 232 234 238 242 243 244 245 247 247 245 244 244 244 245 246 248 250 251 252 253 253
206 206 207 208 208 208 210 213 215 216 217 217 217 218 221 223 225 227 229 230 231 231 233 236 241 243 244 245 246 246 245 245 244 244 244 245 247 250 251 252 254 254
207 208 208 209 209 209 211 213 215 217 218 217 217 219 221 223 224 226 228 230 231 233 233 235 239 243 243 244 245 245 244 244 244 243 243 245 247 249 251 253 254 255
209 209 209 210 210 212 213 215 216 217 217 217 217 219 222 223 224 225 228 230 231 233 234 235 238 241 243 244 245 244 244 244 242 240 241 243 246 248 250 252 254 256
Height
798 801 804 805 807 809 812 814 816 818 819 820 822 823 824 826 829 831 833 834 835 836 837 838 839 840 841 843 844 845 845 846 847 848 848 848 849 849 849 850 850 851
796 799 802 804 806 808 810 812 814 816 817 818 820 821 823 825 827 829 831 832 834 834 835 837 838 839 840 841 842 843 844 844 845 846 846 847 847 848 848 848 849 849
793 796 799 801 803 805 807 810 812 814 815 817 818 820 822 823 825 827 829 831 832 833 834 835 836 837 838 839 840 841 842 842 843 844 845 845 846 846 846 847 847 848
790 793 796 798 800 802 805 807 810 812 814 815 816 818 820 821 823 825 827 829 830 831 832 833 834 835 836 837 838 839 840 840 841 843 843 843 844 844 845 846 846 846
787 790 793 796 798 801 804 805 807 809 811 813 814 816 818 820 821 823 825 826 828 829 830 831 832 833 835 836 836 837 838 838 839 841 841 841 842 842 843 844 844 845
785 788 790 793 796 799 801 802 804 807 809 811 813 815 816 818 819 821 822 824 825 827 828 829 830 831 832 833 834 835 836 836 837 839 839 839 840 840 841 842 842 842
782 785 787 790 793 796 798 800 802 804 806 809 811 813 814 816 817 818 820 822 823 824 825 826 828 829 830 831 832 833 833 835 835 836 837 837 838 838 839 840 840 840
778 781 785 788 791 793 795 798 800 802 804 807 809 810 812 813 815 816 818 819 821 822 823 824 825 826 827 828 829 830 831 832 833 834 834 834 835 836 836 837 838 838
776 779 782 785 788 790 792 795 797 799 802 804 806 808 809 811 813 814 816 817 818 820 820 822 823 823 825 826 826 827 828 829 830 831 831 832 832 832 833 835 836 836
774 777 780 782 785 787 789 792 795 797 799 801 803 805 807 808 810 811 813 815 816 817 818 819 820 820 822 823 823 825 826 826 828 828 828 829 829 830 831 832 833 833
771 774 777 779 782 784 786 789 792 794 796 798 800 802 804 805 807 809 810 812 812 813 814 815 816 818 819 820 821 822 823 824 824 825 825 826 827 828 829 830 830 830
768 771 773 776 778 781 783 786 789 791 793 795 797 799 800 802 804 805 807 808 809 810 811 812 813 815 816 817 818 819 820 821 821 822 823 823 824 825 826 827 828 827
764 766 769 772 774 777 780 783 785 788 790 792 793 795 797 799 800 802 803 804 805 806 808 809 811 812 813 814 815 816 817 818 818 819 820 820 821 822 824 825 825 825
759 762 765 768 771 775 778 780 782 784 786 788 790 792 793 795 797 798 800 801 802 803 804 806 808 809 810 811 812 813 814 814 815 816 817 817 818 819 821 822 822 822
756 759 762 765 769 772 774 777 779 781 783 785 787 788 790 792 793 795 797 798 799 800 801 803 805 805 805 807 808 809 810 811 812 813 814 815 815 816 818 818 819 819
753 756 759 762 765 768 770 773 776 778 780 782 784 785 787 788 790 792 794 794 795 797 798 799 800 800 801 802 803 805 806 808 809 810 811 812 813 814 814 815 815 815
750 753 756 759 761 764 767 769 772 775 777 778 780 782 784 786 787 789 790 791 792 793 794 795 796 796 797 798 799 801 803 805 805 807 808 809 810 810 810 811 812 812
746 750 753 756 758 761 763 766 769 771 773 775 776 778 781 782 784 785 785 787 789 789 790 791 791 792 793 794 796 798 800 801 802 804 805 806 807 807 807 807 808 809
743 746 749 752 754 757 760 762 764 766 768 770 772 775 777 778 779 780 781 783 785 785 786 787 787 788 789 791 792 794 796 798 800 801 802 803 803 803 804 804 804 805
739 742 745 748 750 753 756 758 760 761 763 766 768 771 773 773 774 776 777 779 780 781 782 783 784 785 786 788 789 791 793 795 797 798 800 800 800 800 800 800 801 802
735 738 741 743 746 749 751 753 755 757 759 762 764 766 767 768 770 772 773 774 776 778 779 779 779 781 783 785 786 788 790 792 794 795 796 796 796 796 797 797 797 798
731 734 737 739 742 744 747 749 751 753 755 758 760 761 762 764 765 767 768 770 772 774 775 774 774 777 780 781 782 785 787 789 791 792 792 792 792 792 793 793 794 794
727 730 732 734 737 740 742 744 746 748 751 753 755 756 758 759 760 762 763 766 767 769 770 770 770 773 776 777 779 781 784 786 787 787 787 787 787 788 789 789 789 790
722 725 727 730 732 735 737 739 741 743 746 747 749 751 752 754 755 757 759 761 762 763 765 766 767 769 772 773 775 778 780 781 782 783 782 782 783 784 784 785 785 786
718 720 722 725 727 730 732 734 736 738 740 742 744 746 747 749 751 753 754 756 757 759 761 763 764 765 768 769 771 773 775 777 778 778 777 778 779 780 780 781 781 781
713 716 718 721 723 725 727 729 731 733 736 738 740 742 744 746 747 749 750 752 754 756 758 759 760 762 763 764 766 769 771 772 774 773 773 774 775 776 776 777 777 777